Date String (YYYY-MM-DD hh:mm:ss) UTC,Instrument flags,Ambient pressure (hPa),Sample flow (lpm),Bypass flow (lpm),Sample temperature (°C),Ambient temperature (°C),ASC tube jacket temperature (°C),LED temperature (°C),Box temperature (°C),Sample RH (%),Span deviation,Mass concentration (μg/m³),Mass concentration (μg/m³),Mass concentration (μg/m³)
DateTimeUTC,F1_M11,P_M11,Q1_M11,Q2_M11,T1_M11,T2_M11,T3_M11,T4_M11,T5_M11,U1_M11,ZSPAN_M11,X0_M11,X2_M11,X1_M11
2022-05-09 19:00:00,,0812.9,5.00,0.00,28.2,27.6,00.0,37.1,30.0,18.9,0000.0,0026.51,0007.68,0003.95
2022-05-09 19:01:00,,0812.9,5.00,0.00,28.2,27.6,00.0,37.1,30.0,19.5,0000.0,0026.27,0007.73,0003.94
2022-05-09 19:02:00,,0812.9,5.00,0.00,28.2,27.6,00.0,37.1,30.1,19.7,0000.0,0026.64,0007.69,0003.91
2022-05-09 19:03:00,,0813.0,4.99,0.00,28.2,27.6,00.0,37.1,30.1,19.2,0000.0,0026.42,0007.70,0003.88
2022-05-09 19:04:00,,0813.0,5.00,0.00,28.2,27.7,00.0,37.1,30.1,19.1,0000.0,0027.75,0007.69,0003.86
2022-05-09 19:05:00,,0812.9,5.00,0.00,28.3,27.7,00.0,37.2,30.1,19.0,0000.0,0029.19,0007.64,0003.82
2022-05-09 19:06:00,,0813.1,5.00,0.00,28.3,27.7,00.0,37.2,30.1,19.6,0000.0,0028.92,0007.62,0003.76
2022-05-09 19:07:00,,0812.9,5.00,0.00,28.3,27.7,00.0,37.2,30.1,19.9,0000.0,0027.97,0007.58,0003.71
2022-05-09 19:08:00,,0812.8,5.01,0.00,28.3,27.7,00.0,37.2,30.1,19.3,0000.0,0028.35,0007.54,0003.67
2022-05-09 19:09:00,,0812.9,4.98,0.00,28.3,27.7,00.0,37.2,30.1,18.7,0000.0,0028.51,0007.52,0003.66
2022-05-09 19:10:00,,0813.1,4.99,0.00,28.3,27.7,00.0,37.2,30.1,18.7,0000.0,0028.10,0007.46,0003.64
2022-05-09 19:11:00,,0813.1,4.99,0.00,28.3,27.7,00.0,37.2,30.1,18.7,0000.0,0027.74,0007.48,0003.64
2022-05-09 19:12:00,,0813.1,5.00,0.00,28.3,27.7,00.0,37.2,30.2,18.7,0000.0,0028.08,0007.38,0003.64
2022-05-09 19:13:00,,0812.9,5.00,0.00,28.3,27.7,00.0,37.2,30.2,19.1,0000.0,0028.45,0007.39,0003.65
2022-05-09 19:14:00,,0812.9,5.00,0.00,28.4,27.8,00.0,37.2,30.3,18.9,0000.0,0028.73,0007.31,0003.64
2022-05-09 19:15:00,,0812.9,5.00,0.00,28.4,27.8,00.0,37.3,30.3,19.5,0000.0,0028.16,0007.25,0003.65
2022-05-09 19:16:00,,0812.9,5.00,0.00,28.4,27.8,00.0,37.3,30.3,19.6,0000.0,0026.42,0007.26,0003.65
2022-05-09 19:17:00,,0812.9,5.00,0.00,28.4,27.8,00.0,37.3,30.3,18.6,0000.0,0025.48,0007.30,0003.67
2022-05-09 19:18:00,,0813.0,5.00,0.00,28.4,27.8,00.0,37.3,30.3,18.7,0000.0,0024.59,0007.30,0003.69
2022-05-09 19:19:00,,0813.0,5.00,0.00,28.4,27.9,00.0,37.3,30.3,18.7,0000.0,0023.76,0007.31,0003.69
2022-05-09 19:20:00,,0813.0,5.01,0.00,28.5,27.9,00.0,37.3,30.3,18.6,0000.0,0023.42,0007.31,0003.68
2022-05-09 19:21:00,,0813.0,4.99,0.00,28.5,27.9,00.0,37.3,30.4,18.4,0000.0,0023.34,0007.27,0003.67
2022-05-09 19:22:00,,0813.1,4.99,0.00,28.5,27.9,00.0,37.3,30.4,19.2,0000.0,0023.16,0007.19,0003.65
2022-05-09 19:23:00,,0813.0,5.02,0.00,28.5,27.9,00.0,37.4,30.4,19.5,0000.0,0024.23,0007.23,0003.62
2022-05-09 19:24:00,,0813.0,5.00,0.00,28.6,28.0,00.0,37.4,30.4,19.4,0000.0,0024.69,0007.28,0003.61
2022-05-09 19:25:00,,0813.1,5.00,0.00,28.6,28.0,00.0,37.4,30.5,18.7,0000.0,0025.56,0007.39,0003.62
2022-05-09 19:26:00,,0813.0,5.00,0.00,28.6,28.0,00.0,37.4,30.5,18.8,0000.0,0025.15,0007.55,0003.63
2022-05-09 19:27:00,,0813.0,4.99,0.00,28.6,28.0,00.0,37.4,30.5,18.6,0000.0,0025.03,0007.55,0003.62
2022-05-09 19:28:00,,0813.0,4.99,0.00,28.6,28.0,00.0,37.4,30.5,18.8,0000.0,0025.98,0007.49,0003.61
2022-05-09 19:29:00,,0813.0,5.01,0.00,28.6,28.0,00.0,37.5,30.5,18.5,0000.0,0027.59,0007.53,0003.60
2022-05-09 19:30:00,,0813.2,5.00,0.00,28.6,28.0,00.0,37.5,30.5,18.5,0000.0,0028.86,0007.63,0003.61
2022-05-09 19:31:00,,0813.0,5.00,0.00,28.7,28.1,00.0,37.5,30.5,19.1,0000.0,0029.38,0007.61,0003.60
2022-05-09 19:32:00,,0813.1,5.01,0.00,28.7,28.1,00.0,37.5,30.5,18.9,0000.0,0028.50,0007.61,0003.59
2022-05-09 19:33:00,,0813.2,5.00,0.00,28.7,28.1,00.0,37.5,30.5,18.0,0000.0,0028.30,0007.66,0003.58
2022-05-09 19:34:00,,0813.2,5.00,0.00,28.7,28.1,00.0,37.5,30.5,17.9,0000.0,0026.86,0007.72,0003.60
2022-05-09 19:35:00,,0813.1,4.99,0.00,28.7,28.1,00.0,37.5,30.5,17.8,0000.0,0027.10,0007.79,0003.61
2022-05-09 19:36:00,,0813.2,5.01,0.00,28.7,28.1,00.0,37.5,30.5,17.7,0000.0,0025.55,0007.77,0003.62
2022-05-09 19:37:00,,0813.2,5.00,0.00,28.7,28.1,00.0,37.6,30.5,17.8,0000.0,0025.33,0007.64,0003.61
2022-05-09 19:38:00,,0813.1,4.99,0.00,28.7,28.1,00.0,37.6,30.5,18.0,0000.0,0025.75,0007.66,0003.62
2022-05-09 19:39:00,,0813.0,5.01,0.00,28.7,28.1,00.0,37.6,30.5,17.6,0000.0,0026.12,0007.75,0003.62
2022-05-09 19:40:00,,0813.0,5.01,0.00,28.7,28.1,00.0,37.6,30.5,17.5,0000.0,0025.56,0007.77,0003.62
2022-05-09 19:41:00,,0813.0,5.00,0.00,28.7,28.1,00.0,37.6,30.5,17.7,0000.0,0025.12,0007.79,0003.61
2022-05-09 19:42:00,,0813.2,5.00,0.00,28.7,28.1,00.0,37.6,30.5,17.7,0000.0,0024.81,0007.81,0003.61
2022-05-09 19:43:00,,0813.3,4.99,0.00,28.7,28.1,00.0,37.6,30.5,17.9,0000.0,0026.01,0007.90,0003.64
2022-05-09 19:44:00,,0813.2,5.00,0.00,28.7,28.1,00.0,37.6,30.6,17.8,0000.0,0026.75,0007.93,0003.65
2022-05-09 19:45:00,,0813.3,5.00,0.00,28.7,28.1,00.0,37.6,30.6,18.2,0000.0,0027.68,0007.91,0003.63
2022-05-09 19:46:00,,0813.3,5.02,0.00,28.7,28.1,00.0,37.6,30.6,18.0,0000.0,0027.63,0007.81,0003.63
2022-05-09 19:47:00,,0813.3,5.00,0.00,28.7,28.1,00.0,37.7,30.6,17.7,0000.0,0027.07,0007.82,0003.62
2022-05-09 19:48:00,,0813.3,5.00,0.00,28.8,28.2,00.0,37.7,30.6,17.8,0000.0,0027.57,0007.93,0003.63
2022-05-09 19:49:00,,0813.2,5.00,0.00,28.8,28.2,00.0,37.7,30.7,18.0,0000.0,0028.54,0008.02,0003.61
2022-05-09 19:50:00,,0813.2,5.01,0.00,28.8,28.2,00.0,37.7,30.6,18.0,0000.0,0028.45,0007.93,0003.60
2022-05-09 19:51:00,,0813.1,5.00,0.00,28.8,28.2,00.0,37.7,30.6,17.6,0000.0,0027.99,0007.86,0003.58
2022-05-09 19:52:00,,0813.2,5.00,0.00,28.8,28.2,00.0,37.7,30.7,17.8,0000.0,0027.56,0007.82,0003.57
2022-05-09 19:53:00,,0813.2,5.00,0.00,28.8,28.2,00.0,37.7,30.7,17.4,0000.0,0028.49,0007.83,0003.55
2022-05-09 19:54:00,,0813.2,5.00,0.00,28.8,28.2,00.0,37.7,30.6,17.5,0000.0,0027.79,0007.73,0003.53
2022-05-09 19:55:00,,0813.2,5.01,0.00,28.8,28.2,00.0,37.7,30.7,17.8,0000.0,0027.63,0007.68,0003.53
2022-05-09 19:56:00,,0813.2,5.00,0.00,28.8,28.3,00.0,37.7,30.7,18.1,0000.0,0027.99,0007.68,0003.53
2022-05-09 19:57:00,,0813.2,4.99,0.00,28.8,28.3,00.0,37.7,30.7,18.4,0000.0,0027.06,0007.64,0003.51
2022-05-09 19:58:00,,0813.1,5.00,0.00,28.9,28.3,00.0,37.8,30.7,17.5,0000.0,0028.28,0007.58,0003.49
2022-05-09 19:59:00,,0813.2,5.00,0.00,28.9,28.3,00.0,37.8,30.7,17.7,0000.0,0028.36,0007.62,0003.48
